User: anonymous   Login
Location: Unspecified
(0.0000°N, 0.0000°E)
Time: 18:15:07
(UTC+01:00)
Language:

Cosmos 1980 Rocket - Orbit

View from above orbital plane
View from above orbital plane
View from above satellite
View from above satellite

Ground track
Ground track

The orbit data is extracted from the following two-line orbital elements,

1 19650U 88102B   16043.87383381  .00000095  00000-0  72544-4 0  9995
2 19650  71.0019 326.0666 0015571 216.2714 143.7354 14.15731727406591
Epoch (UTC): 12 February 2016 20:58:19
Eccentricity: 0.0015571
inclination: 71.0019°
perigee height: 828 km
apogee height: 851 km
right ascension of ascending node: 326.0666°
argument of perigee: 216.2714°
revolutions per day: 14.15731727
mean anomaly at epoch: 143.7354°
orbit number at epoch: 40659

The dashed part of the orbit path shows where the satellite is in the earth's shadow,  

DLR